Location: Del Amo
(33.8464°N, 118.2104°W)
Time: 14:44:46
(UTC+00:00)

Transit 4A - Visible Passes

Search period start: 13 September 2024 00:00
Search period end: 23 September 2024 00:00
Orbit: 866 x 976 km, 66.8° (Epoch: 12 September)

Date Brightness Start Highest point End Pass type
(mag) Time Alt. Az. Time Alt. Az. Time Alt. Az.
13 Sep 10.3 09:42:44 15° ENE 09:42:44 15° ENE 09:44:06 10° ENE visible
13 Sep 8.2 11:26:14 45° NW 11:26:14 45° NW 11:31:23 10° NNE visible
14 Sep 10.0 09:51:52 19° ENE 09:51:52 19° ENE 09:53:47 10° NE visible
14 Sep 8.8 11:35:23 31° NW 11:35:23 31° NW 11:40:02 10° N visible
15 Sep 9.9 10:00:59 22° NE 10:00:59 22° NE 10:03:06 10° NE visible
15 Sep 9.3 11:44:29 21° NW 11:44:29 21° NW 11:48:27 10° N visible
16 Sep 9.8 10:10:02 24° NNE 10:10:02 24° NNE 10:12:13 10° NNE visible
16 Sep 9.7 11:53:32 14° NW 11:53:32 14° NW 11:56:30 10° NNW visible
17 Sep 9.8 10:19:02 22° NNE 10:19:02 22° NNE 10:21:09 10° NNE visible
18 Sep 9.8 10:28:01 20° N 10:28:01 20° N 10:29:55 10° NNE visible
19 Sep 10.0 10:36:57 16° N 10:36:57 16° N 10:38:29 10° N visible
20 Sep 10.1 10:45:51 13° NNW 10:45:51 13° NNW 10:46:51 10° N visible
